St. George, UT

3:45 PM MDT on April 24, 2018 (GMT -0600)
Saint George Municipal

Weather History for KSGU - December, 2012

Change the Weather History Date:

Thursday, December 6, 2012

  Actual Average Record
Temperature  
Mean Temperature 44 °F -  
Max Temperature 51 °F 56 °F 70 °F (1977)
Min Temperature 39 °F 30 °F 15 °F (2013)
Degree Days  
Heating Degree Days 22    
Moisture  
Dew Point 28 °F    
Average Humidity 54    
Maximum Humidity 65    
Minimum Humidity 44    
Precipitation  
Precipitation 0.00 in - - ()
Sea Level Pressure  
Sea Level Pressure 30.04 in    
Wind  
Wind Speed 1 mph (SSW)    
Max Wind Speed 6 mph    
Max Gust Speed -    
Visibility 10 miles    
Events      
Averages and records for this station are not official NWS values.
T = Trace of Precipitation, MM = Missing Value Source: NWS Daily Summary

Daily Weather History Graph

Daily Weather History Graph

Search for Another Location

Airport or City:

Astronomy

Dec. 06, 2012 Rise Set
Actual Time 7:33 AM MST 5:16 PM MST
Civil Twilight 7:04 AM MST 5:45 PM MST
Nautical Twilight 6:32 AM MST 6:18 PM MST
Astronomical Twilight 6:01 AM MST 6:49 PM MST
Moon 12:03 AM MST (12/6) 12:36 PM MST (12/6)
Length of Visible Light 10h 40m
Length of Day
9h 43m
Waning Gibbous, 48% of the Moon is Illuminated
Dec 6
Waning Gibbous
Dec 13
New
Dec 19
First Quarter
Dec 28
Full
Jan 4
Last Quarter

Hourly Weather History & Observations

Time (MST) Temp. Windchill Dew Point Humidity Pressure Visibility Wind Dir Wind Speed Gust Speed Precip Events Conditions
12:15 AM 44.6 °F - 28.4 °F 53% 30.06 in 10.0 mi Calm Calm - N/A   Clear
12:35 AM 46.4 °F - 28.4 °F 50% 30.05 in 10.0 mi Calm Calm - N/A   Clear
12:55 AM 46.4 °F - 28.4 °F 50% 30.05 in 10.0 mi Calm Calm - N/A   Clear
1:15 AM 46.4 °F - 28.4 °F 50% 30.05 in 10.0 mi Calm Calm - N/A   Clear
1:55 AM 46.4 °F - 28.4 °F 50% 30.05 in 10.0 mi Calm Calm - N/A   Clear
2:15 AM 42.8 °F 41.1 °F 28.4 °F 57% 30.05 in 10.0 mi SSW 3.5 mph - N/A   Clear
2:35 AM 42.8 °F - 26.6 °F 53% 30.05 in 10.0 mi Calm Calm - N/A   Clear
2:55 AM 42.8 °F 39.3 °F 28.4 °F 57% 30.04 in 10.0 mi SSE 5.8 mph - N/A   Clear
3:15 AM 44.6 °F 43.1 °F 28.4 °F 53% 30.05 in 10.0 mi SW 3.5 mph - N/A   Clear
3:35 AM 44.6 °F - 28.4 °F 53% 30.04 in 10.0 mi Calm Calm - N/A   Clear
3:55 AM 44.6 °F - 28.4 °F 53% 30.04 in 10.0 mi Calm Calm - N/A   Clear
4:15 AM 44.6 °F 43.1 °F 28.4 °F 53% 30.03 in 10.0 mi SW 3.5 mph - N/A   Clear
4:35 AM 42.8 °F - 28.4 °F 57% 30.04 in 10.0 mi Calm Calm - N/A   Clear
4:55 AM 42.8 °F - 28.4 °F 57% 30.03 in 10.0 mi Calm Calm - N/A   Clear
5:15 AM 42.8 °F - 28.4 °F 57% 30.03 in 10.0 mi Calm Calm - N/A   Clear
5:35 AM 41.0 °F 39.0 °F 26.6 °F 57% 30.03 in 10.0 mi South 3.5 mph - N/A   Clear
5:55 AM 41.0 °F - 26.6 °F 57% 30.03 in 10.0 mi Calm Calm - N/A   Clear
6:15 AM 44.6 °F - 28.4 °F 53% 30.03 in 10.0 mi Calm Calm - N/A   Mostly Cloudy
6:35 AM 42.8 °F - 26.6 °F 53% 30.04 in 10.0 mi Calm Calm - N/A   Scattered Clouds
6:55 AM 39.2 °F 37.0 °F 26.6 °F 61% 30.04 in 10.0 mi South 3.5 mph - N/A   Partly Cloudy
7:15 AM 39.2 °F 35.0 °F 26.6 °F 61% 30.04 in 10.0 mi South 5.8 mph - N/A   Clear
7:55 AM 39.2 °F 35.0 °F 28.4 °F 65% 30.04 in 10.0 mi North 5.8 mph - N/A   Clear
8:15 AM 39.2 °F - 26.6 °F 61% 30.03 in 10.0 mi Calm Calm - N/A   Clear
8:35 AM 39.2 °F - 26.6 °F 61% 30.04 in 10.0 mi Calm Calm - N/A   Clear
8:55 AM 44.6 °F 41.4 °F 28.4 °F 53% 30.04 in 10.0 mi South 5.8 mph - N/A   Clear
9:15 AM 42.8 °F 40.1 °F 28.4 °F 57% 30.06 in 10.0 mi SSW 4.6 mph - N/A   Clear
9:35 AM 44.6 °F 42.2 °F 28.4 °F 53% 30.06 in 10.0 mi SSW 4.6 mph - N/A   Clear
9:55 AM 46.4 °F 45.2 °F 28.4 °F 50% 30.06 in 10.0 mi SSW 3.5 mph - N/A   Clear
10:15 AM 46.4 °F - 28.4 °F 50% 30.06 in 10.0 mi Calm Calm - N/A   Clear
10:35 AM 48.2 °F - 30.2 °F 50% 30.05 in 10.0 mi SSW 3.5 mph - N/A   Clear
10:55 AM 51.8 °F - 30.2 °F 44% 30.05 in 10.0 mi Calm Calm - N/A   Clear